User: anonymous   Login
Location: Brno
(49.2000°N, 16.6330°E)
Time: 05:18:34
(UTC+01:00)
Language:

Cosmos 2227 - Orbit

View from above orbital plane
View from above orbital plane
View from above satellite
View from above satellite

Ground track
Ground track

The orbit data is extracted from the following two-line orbital elements,

1 22284U 92093A   17020.47039409 -.00000064  00000-0 -89568-5 0  9990
2 22284  70.9786 185.1421 0017952  29.8621 330.3521 14.13284078241777
Epoch (UTC): 20 January 2017 11:17:22
Eccentricity: 0.0017952
inclination: 70.9786°
perigee height: 835 km
apogee height: 861 km
right ascension of ascending node: 185.1421°
argument of perigee: 29.8621°
revolutions per day: 14.13284078
mean anomaly at epoch: 330.3521°
orbit number at epoch: 24177

The dashed part of the orbit path shows where the satellite is in the earth's shadow,  

DLR